FENGYUN 3C

Last updated on Sat Jul 05 2025 00:02:21 GMT+0000 (Coordinated Universal Time)

1 39260U 13052A 25185.66870201 .00000051 00000+0 47149-4 0 9996 2 39260 98.4551 171.3742 0013716 307.2102 52.7821 14.15633093609467
UTC large
Height (km)
Speed (km/s)
/
Latitude / Longitude
Inclination (degrees)
Orbital Period (minutes)
Azimuth
Elevation
Range (km)
Doppler Factor

Next 0 passes for location: London (51.5072 / 0.1276)

Sorry there are no passes over London.